This is the latest recevied weather packets stored in our database for station/object OK1TBM-13. If no packets are shown the sender has not sent any weather packets the latest 10 day(s).
| Time | Temp. | Humidity | Pressure | Rain* | Wind** | Luminosity | Snow |
|---|---|---|---|---|---|---|---|
| 1788207006 | 14.44° C | 99% | 1014.2 hPa | 0 mm | - | 0 W/m² | - |
| 1788206408 | 14.44° C | 97% | 1014.2 hPa | 0 mm | - | 0 W/m² | - |
| 1788205801 | 14.44° C | 96% | 1014.2 hPa | 0 mm | - | 0 W/m² | - |
| 1788205502 | 14.44° C | 96% | 1014.2 hPa | 0 mm | - | 0 W/m² | - |
| 1788205202 | 15° C | 94% | 1014.2 hPa | 0 mm | - | 0 W/m² | - |
| 1788204902 | 15° C | 94% | 1014.2 hPa | 0 mm | - | 0 W/m² | - |
| 1788204602 | 15° C | 93% | 1014.2 hPa | 0 mm | - | 0 W/m² | - |
| 1788204002 | 15.56° C | 95% | 1014.2 hPa | 0 mm | - | 0 W/m² | - |
| 1788203407 | 15.56° C | 94% | 1014.2 hPa | 0 mm | - | 0 W/m² | - |
| 1788202802 | 15.56° C | 93% | 1014.2 hPa | 0 mm | - | 0 W/m² | - |
| 1788202502 | 15.56° C | 91% | 1014.2 hPa | 0 mm | - | 0 W/m² | - |
| 1788202202 | 16.11° C | 91% | 1014.2 hPa | 0 mm | - | 0 W/m² | - |
| 1788201002 | 16.67° C | 88% | 1014.2 hPa | 0 mm | - | 0 W/m² | - |
| 1788200701 | 16.67° C | 87% | 1013.9 hPa | 0 mm | - | 0 W/m² | - |
| 1788200401 | 17.22° C | 87% | 1013.9 hPa | 0 mm | - | 0 W/m² | - |
| 1788199800 | 17.78° C | 84% | 1013.9 hPa | 0 mm | - | 0 W/m² | - |
| 1788198901 | 19.44° C | 80% | 1013.9 hPa | 0 mm | - | 1 W/m² | - |
| 1788198601 | 19.44° C | 77% | 1013.9 hPa | 0 mm | - | 2 W/m² | - |
| 1788198307 | 20° C | 76% | 1013.9 hPa | 0 mm | - | 4 W/m² | - |
| 1788198001 | 20.56° C | 73% | 1013.9 hPa | 0 mm | - | 6 W/m² | - |
| 1788197708 | 21.11° C | 70% | 1013.9 hPa | 0 mm | - | 8 W/m² | - |
| 1788197105 | 22.22° C | 64% | 1013.9 hPa | 0 mm | - | 15 W/m² | - |
| 1788196801 | 23.33° C | 63% | 1013.9 hPa | 0 mm | - | 18 W/m² | - |
| 1788196501 | 23.33° C | 61% | 1013.9 hPa | 0 mm | - | 21 W/m² | - |
| 1788196201 | 23.33° C | 57% | 1013.9 hPa | 0 mm | - | 25 W/m² | - |
* Rain latest hour (hover to see other rain measurements)
** Current wind speed in m/s (hover to see current wind gust speed)